Time,TemperatureF,DewpointF,PressureIn,WindDirection,WindDirectionDegrees,WindSpeedMPH,WindSpeedGustMPH,Humidity,HourlyPrecipIn,Conditions,Clouds,dailyrainin,SolarRadiationWatts/m^2,SoftwareType,DateUTC
2013-05-10 00:01:00,44.1,41.4,30.01,ENE,70,3.0,16.0,90,0.05,,,0.11,0.0,meteohub,2013-05-10 04:01:00,
2013-05-10 00:02:00,44.1,41.4,30.01,ENE,61,4.0,16.0,90,0.05,,,0.11,0.0,meteohub,2013-05-10 04:02:00,
2013-05-10 00:07:00,43.9,41.4,30.01,ENE,65,5.0,15.0,91,0.06,,,0.12,0.0,meteohub,2013-05-10 04:07:00,
2013-05-10 00:12:00,43.5,41.0,30.02,NNE,22,4.0,15.0,91,0.06,,,0.12,0.0,meteohub,2013-05-10 04:12:00,
2013-05-10 00:17:00,43.3,40.8,30.02,North,5,2.0,15.0,91,0.06,,,0.13,0.0,meteohub,2013-05-10 04:17:00,
2013-05-10 00:22:00,43.3,40.8,30.02,ENE,74,12.0,13.0,91,0.06,,,0.13,0.0,meteohub,2013-05-10 04:22:00,
2013-05-10 00:27:00,43.2,40.6,30.02,ENE,66,5.0,15.0,91,0.05,,,0.13,0.0,meteohub,2013-05-10 04:27:00,
2013-05-10 00:32:00,43.0,40.5,30.02,NE,50,3.0,15.0,91,0.06,,,0.14,0.0,meteohub,2013-05-10 04:32:00,
2013-05-10 00:37:00,42.6,40.1,30.02,NE,34,5.0,15.0,91,0.06,,,0.14,0.0,meteohub,2013-05-10 04:37:00,
2013-05-10 00:42:00,42.4,40.3,30.02,ENE,74,11.0,13.0,92,0.05,,,0.14,0.0,meteohub,2013-05-10 04:42:00,
2013-05-10 00:47:00,42.3,39.7,30.02,NE,37,3.0,15.0,91,0.06,,,0.15,0.0,meteohub,2013-05-10 04:47:00,
2013-05-10 00:52:00,42.3,40.1,30.03,NE,46,8.0,16.0,92,0.06,,,0.16,0.0,meteohub,2013-05-10 04:52:00,
2013-05-10 00:57:00,42.1,39.9,30.03,East,89,6.0,16.0,92,0.06,,,0.16,0.0,meteohub,2013-05-10 04:57:00,
2013-05-10 01:02:00,42.1,39.9,30.02,NE,36,4.0,15.0,92,0.05,,,0.16,0.0,meteohub,2013-05-10 05:02:00,
2013-05-10 01:07:00,41.9,40.1,30.02,NE,36,4.0,15.0,93,0.05,,,0.17,0.0,meteohub,2013-05-10 05:07:00,
2013-05-10 01:12:00,41.7,39.9,30.02,East,83,5.0,14.0,93,0.05,,,0.17,0.0,meteohub,2013-05-10 05:12:00,
2013-05-10 01:17:00,41.5,39.7,30.02,NE,38,9.0,14.0,93,0.05,,,0.18,0.0,meteohub,2013-05-10 05:17:00,
2013-05-10 01:22:00,41.5,39.7,30.03,ENE,77,7.0,14.0,93,0.05,,,0.18,0.0,meteohub,2013-05-10 05:22:00,
2013-05-10 01:27:00,41.4,39.6,30.03,ENE,70,7.0,11.0,93,0.04,,,0.18,0.0,meteohub,2013-05-10 05:27:00,
2013-05-10 01:32:00,41.4,39.6,30.03,ENE,65,9.0,15.0,93,0.05,,,0.19,0.0,meteohub,2013-05-10 05:32:00,
2013-05-10 01:37:00,41.4,39.6,30.03,ENE,63,7.0,15.0,93,0.05,,,0.19,0.0,meteohub,2013-05-10 05:37:00,
2013-05-10 01:42:00,41.2,39.4,30.03,East,82,6.0,16.0,93,0.05,,,0.20,0.0,meteohub,2013-05-10 05:42:00,
2013-05-10 01:47:00,41.0,39.2,30.03,NE,51,6.0,16.0,93,0.05,,,0.20,0.0,meteohub,2013-05-10 05:47:00,
2013-05-10 06:04:00,37.0,35.8,29.99,ENE,69,4.0,16.0,95,0.05,,,0.20,0.0,meteohub,2013-05-10 10:04:00,
2013-05-10 06:09:00,37.0,35.8,29.99,East,80,7.0,-999.0,95,-99.99,,,0.20,0.0,meteohub,2013-05-10 10:09:00,
2013-05-10 06:14:00,37.0,36.0,29.99,ENE,65,4.0,15.0,96,0.02,,,0.49,0.0,meteohub,2013-05-10 10:14:00,
2013-05-10 06:19:00,37.0,36.0,29.99,NE,37,7.0,13.0,96,0.03,,,0.50,0.0,meteohub,2013-05-10 10:19:00,
2013-05-10 06:24:00,36.9,35.8,29.99,East,85,8.0,13.0,96,0.04,,,0.51,0.0,meteohub,2013-05-10 10:24:00,
2013-05-10 06:29:00,36.9,35.8,29.99,NNE,30,7.0,15.0,96,0.05,,,0.52,0.0,meteohub,2013-05-10 10:29:00,
2013-05-10 06:34:00,36.9,35.8,29.99,ENE,61,3.0,15.0,96,0.03,,,0.52,0.0,meteohub,2013-05-10 10:34:00,
2013-05-10 06:39:00,36.9,35.8,29.99,ENE,63,5.0,14.0,96,0.04,,,0.53,0.0,meteohub,2013-05-10 10:39:00,
2013-05-10 06:44:00,36.7,35.6,29.99,ENE,57,3.0,14.0,96,0.04,,,0.53,0.0,meteohub,2013-05-10 10:44:00,
2013-05-10 06:49:00,36.7,35.6,29.99,ENE,67,10.0,14.0,96,0.05,,,0.54,0.0,meteohub,2013-05-10 10:49:00,
2013-05-10 06:55:00,36.7,35.6,29.99,ENE,63,12.0,12.0,96,0.06,,,0.55,5.0,meteohub,2013-05-10 10:55:00,
2013-05-10 07:00:00,36.7,35.6,29.99,ESE,112,5.0,12.0,96,0.06,,,0.55,7.0,meteohub,2013-05-10 11:00:00,
2013-05-10 07:05:00,36.7,35.6,29.99,NNE,19,6.0,12.0,96,0.07,,,0.56,9.0,meteohub,2013-05-10 11:05:00,
2013-05-10 07:10:00,36.7,35.6,29.99,ENE,61,10.0,11.0,96,0.08,,,0.57,11.0,meteohub,2013-05-10 11:10:00,
2013-05-10 07:15:00,36.7,35.6,29.99,ENE,68,3.0,11.0,96,0.07,,,0.57,9.0,meteohub,2013-05-10 11:15:00,
2013-05-10 07:20:00,36.7,35.6,29.99,ENE,59,9.0,13.0,96,0.07,,,0.58,12.0,meteohub,2013-05-10 11:20:00,
2013-05-10 07:25:00,36.7,35.6,29.99,NE,46,5.0,13.0,96,0.06,,,0.58,12.0,meteohub,2013-05-10 11:25:00,
2013-05-10 07:30:00,36.5,35.4,29.99,ENE,71,2.0,12.0,96,0.06,,,0.58,16.0,meteohub,2013-05-10 11:30:00,
2013-05-10 07:35:00,36.5,35.4,29.99,ENE,76,4.0,12.0,96,0.06,,,0.59,18.0,meteohub,2013-05-10 11:35:00,
2013-05-10 07:40:00,36.3,35.2,29.99,NE,46,3.0,12.0,96,0.06,,,0.59,19.0,meteohub,2013-05-10 11:40:00,
2013-05-10 07:45:00,36.3,35.2,29.99,ENE,75,4.0,13.0,96,0.06,,,0.60,19.0,meteohub,2013-05-10 11:45:00,
2013-05-10 07:50:00,36.5,35.4,29.99,ENE,71,5.0,13.0,96,0.05,,,0.60,21.0,meteohub,2013-05-10 11:50:00,
2013-05-10 07:55:00,36.3,35.2,29.99,NE,51,2.0,13.0,96,0.05,,,0.60,25.0,meteohub,2013-05-10 11:55:00,
2013-05-10 08:00:00,36.3,35.2,29.99,East,86,5.0,11.0,96,0.05,,,0.61,26.0,meteohub,2013-05-10 12:00:00,
2013-05-10 08:05:00,36.5,35.4,29.99,ENE,74,4.0,15.0,96,0.04,,,0.61,32.0,meteohub,2013-05-10 12:05:00,
2013-05-10 08:10:00,36.5,35.4,29.98,ENE,57,4.0,15.0,96,0.04,,,0.61,40.0,meteohub,2013-05-10 12:10:00,
2013-05-10 08:15:00,36.5,35.4,29.98,East,85,10.0,15.0,96,0.04,,,0.61,44.0,meteohub,2013-05-10 12:15:00,
2013-05-10 08:21:00,36.7,35.6,29.98,ENE,72,3.0,13.0,96,0.04,,,0.62,56.0,meteohub,2013-05-10 12:21:00,
2013-05-10 08:26:00,36.7,35.6,29.98,ENE,68,4.0,13.0,96,0.04,,,0.62,58.0,meteohub,2013-05-10 12:26:00,
2013-05-10 08:31:00,36.7,35.6,29.98,NW,321,5.0,13.0,96,0.04,,,0.63,44.0,meteohub,2013-05-10 12:31:00,
2013-05-10 08:36:00,36.7,35.6,29.98,NE,49,5.0,10.0,96,0.04,,,0.63,39.0,meteohub,2013-05-10 12:36:00,
2013-05-10 08:41:00,36.9,35.8,29.98,NE,49,5.0,10.0,96,0.04,,,0.63,42.0,meteohub,2013-05-10 12:41:00,
2013-05-10 08:46:00,36.9,35.8,29.98,ENE,70,5.0,10.0,96,0.03,,,0.63,51.0,meteohub,2013-05-10 12:46:00,
2013-05-10 08:51:00,36.9,35.8,29.98,ENE,67,4.0,13.0,96,0.03,,,0.63,51.0,meteohub,2013-05-10 12:51:00,
2013-05-10 08:56:00,36.9,35.8,29.99,ENE,73,7.0,14.0,96,0.02,,,0.63,44.0,meteohub,2013-05-10 12:56:00,
2013-05-10 09:01:00,37.0,36.0,29.99,ENE,77,3.0,14.0,96,0.02,,,0.63,44.0,meteohub,2013-05-10 13:01:00,
2013-05-10 09:06:00,37.0,36.0,29.99,East,83,8.0,11.0,96,0.03,,,0.64,42.0,meteohub,2013-05-10 13:06:00,
2013-05-10 09:11:00,37.0,36.0,29.98,East,81,8.0,11.0,96,0.03,,,0.64,54.0,meteohub,2013-05-10 13:11:00,
2013-05-10 09:16:00,37.0,36.0,29.98,ENE,58,3.0,10.0,96,0.02,,,0.64,62.0,meteohub,2013-05-10 13:16:00,
2013-05-10 09:21:00,37.2,36.1,29.98,ESE,105,5.0,13.0,96,0.02,,,0.64,56.0,meteohub,2013-05-10 13:21:00,
2013-05-10 09:26:00,37.0,36.0,29.98,ENE,72,9.0,13.0,96,0.02,,,0.64,51.0,meteohub,2013-05-10 13:26:00,
2013-05-10 09:31:00,37.2,36.1,29.99,ENE,60,2.0,13.0,96,0.01,,,0.64,56.0,meteohub,2013-05-10 13:31:00,
2013-05-10 09:36:00,37.2,36.1,29.99,East,83,6.0,13.0,96,0.02,,,0.65,58.0,meteohub,2013-05-10 13:36:00,
2013-05-10 09:41:00,37.4,36.3,29.99,ESE,102,3.0,13.0,96,0.02,,,0.65,58.0,meteohub,2013-05-10 13:41:00,
2013-05-10 09:47:00,37.4,36.3,29.99,ENE,76,4.0,13.0,96,0.02,,,0.65,62.0,meteohub,2013-05-10 13:47:00,
2013-05-10 09:52:00,37.6,36.5,29.98,ENE,76,4.0,12.0,96,0.02,,,0.65,58.0,meteohub,2013-05-10 13:52:00,
2013-05-10 09:57:00,37.6,36.5,29.99,East,81,9.0,12.0,96,0.02,,,0.65,35.0,meteohub,2013-05-10 13:57:00,
2013-05-10 10:02:00,37.6,36.5,29.99,ENE,62,5.0,11.0,96,0.02,,,0.65,35.0,meteohub,2013-05-10 14:02:00,
2013-05-10 10:07:00,37.4,36.3,29.99,ENE,63,4.0,11.0,96,0.02,,,0.66,35.0,meteohub,2013-05-10 14:07:00,
2013-05-10 10:12:00,37.4,36.3,29.99,East,84,8.0,10.0,96,0.02,,,0.66,44.0,meteohub,2013-05-10 14:12:00,
2013-05-10 10:17:00,37.6,36.5,29.99,ENE,63,5.0,12.0,96,0.03,,,0.67,49.0,meteohub,2013-05-10 14:17:00,
2013-05-10 10:22:00,37.6,36.5,29.99,NE,37,2.0,12.0,96,0.03,,,0.67,69.0,meteohub,2013-05-10 14:22:00,
2013-05-10 10:27:00,37.6,36.9,29.99,NE,49,3.0,12.0,97,0.04,,,0.68,72.0,meteohub,2013-05-10 14:27:00,
2013-05-10 10:32:00,37.8,37.0,29.99,NE,40,3.0,9.0,97,0.04,,,0.68,69.0,meteohub,2013-05-10 14:32:00,
2013-05-10 10:37:00,37.8,37.0,29.99,NE,40,7.0,8.0,97,0.03,,,0.68,88.0,meteohub,2013-05-10 14:37:00,
2013-05-10 10:42:00,37.9,37.2,29.99,NE,49,3.0,10.0,97,0.04,,,0.69,83.0,meteohub,2013-05-10 14:42:00,
2013-05-10 10:47:00,37.9,37.2,29.99,ENE,62,4.0,10.0,97,0.04,,,0.69,90.0,meteohub,2013-05-10 14:47:00,
2013-05-10 10:52:00,37.9,36.9,29.99,NNE,32,8.0,10.0,96,0.04,,,0.69,72.0,meteohub,2013-05-10 14:52:00,
2013-05-10 10:57:00,38.1,37.0,29.99,NE,44,4.0,10.0,96,0.04,,,0.69,74.0,meteohub,2013-05-10 14:57:00,
2013-05-10 11:02:00,37.9,36.9,29.98,ENE,68,4.0,11.0,96,0.03,,,0.69,69.0,meteohub,2013-05-10 15:02:00,
2013-05-10 11:07:00,37.9,36.9,29.99,NNE,19,2.0,11.0,96,0.03,,,0.69,84.0,meteohub,2013-05-10 15:07:00,
2013-05-10 11:12:00,37.6,36.5,29.99,ENE,78,3.0,13.0,96,0.03,,,0.69,107.0,meteohub,2013-05-10 15:12:00,
2013-05-10 11:17:00,37.6,36.5,29.99,NNE,20,5.0,13.0,96,0.02,,,0.69,125.0,meteohub,2013-05-10 15:17:00,
2013-05-10 11:22:00,37.8,36.7,29.99,East,86,6.0,10.0,96,0.02,,,0.69,142.0,meteohub,2013-05-10 15:22:00,
2013-05-10 11:27:00,37.8,36.7,29.99,NE,39,3.0,12.0,96,0.01,,,0.69,130.0,meteohub,2013-05-10 15:27:00,
2013-05-10 11:32:00,37.8,36.7,29.99,NE,52,4.0,12.0,96,0.02,,,0.70,132.0,meteohub,2013-05-10 15:32:00,
2013-05-10 11:37:00,37.8,36.7,29.99,East,82,3.0,11.0,96,0.02,,,0.70,125.0,meteohub,2013-05-10 15:37:00,
2013-05-10 11:42:00,37.9,36.9,29.99,ENE,74,3.0,14.0,96,0.01,,,0.70,142.0,meteohub,2013-05-10 15:42:00,
2013-05-10 11:47:00,38.1,37.0,29.99,NE,52,4.0,14.0,96,0.01,,,0.70,134.0,meteohub,2013-05-10 15:47:00,
2013-05-10 11:52:00,37.9,36.9,29.99,NNE,32,2.0,13.0,96,0.01,,,0.70,135.0,meteohub,2013-05-10 15:52:00,
2013-05-10 11:57:00,37.8,36.7,29.99,East,79,9.0,15.0,96,0.02,,,0.71,128.0,meteohub,2013-05-10 15:57:00,
2013-05-10 12:02:00,37.8,36.5,29.98,NE,40,8.0,15.0,95,0.02,,,0.71,165.0,meteohub,2013-05-10 16:02:00,
2013-05-10 12:07:00,37.8,36.7,29.98,NNE,33,3.0,15.0,96,0.02,,,0.71,179.0,meteohub,2013-05-10 16:07:00,
2013-05-10 12:12:00,37.9,36.9,29.98,ENE,59,8.0,15.0,96,0.02,,,0.71,167.0,meteohub,2013-05-10 16:12:00,
2013-05-10 12:17:00,37.9,36.7,29.98,East,80,7.0,14.0,95,0.02,,,0.71,181.0,meteohub,2013-05-10 16:17:00,
2013-05-10 12:22:00,37.9,36.9,29.98,NNE,28,4.0,16.0,96,0.03,,,0.72,146.0,meteohub,2013-05-10 16:22:00,
2013-05-10 12:27:00,38.3,37.2,29.98,East,86,5.0,16.0,96,0.03,,,0.72,141.0,meteohub,2013-05-10 16:27:00,
2013-05-10 12:33:00,38.1,37.0,29.98,ENE,65,3.0,16.0,96,0.02,,,0.72,158.0,meteohub,2013-05-10 16:33:00,
2013-05-10 12:38:00,38.1,37.0,29.98,North,5,4.0,11.0,96,0.02,,,0.72,167.0,meteohub,2013-05-10 16:38:00,
2013-05-10 12:43:00,38.1,36.9,29.98,ENE,64,3.0,11.0,95,0.02,,,0.72,193.0,meteohub,2013-05-10 16:43:00,
2013-05-10 12:48:00,38.1,37.0,29.98,NNE,22,3.0,10.0,96,0.02,,,0.72,174.0,meteohub,2013-05-10 16:48:00,
2013-05-10 12:53:00,38.5,37.4,29.98,East,90,7.0,10.0,96,0.02,,,0.72,197.0,meteohub,2013-05-10 16:53:00,
2013-05-10 12:58:00,38.3,37.0,29.98,East,82,6.0,13.0,95,0.01,,,0.72,250.0,meteohub,2013-05-10 16:58:00,
2013-05-10 13:03:00,38.7,37.4,29.98,NE,44,3.0,13.0,95,0.01,,,0.72,255.0,meteohub,2013-05-10 17:03:00,
2013-05-10 13:08:00,38.5,37.2,29.98,ENE,71,5.0,13.0,95,0.01,,,0.72,320.0,meteohub,2013-05-10 17:08:00,
2013-05-10 13:13:00,38.7,37.4,29.98,ENE,75,5.0,15.0,95,0.02,,,0.73,281.0,meteohub,2013-05-10 17:13:00,
2013-05-10 13:18:00,38.7,37.4,29.98,NNE,33,3.0,15.0,95,0.02,,,0.73,315.0,meteohub,2013-05-10 17:18:00,
2013-05-10 13:23:00,39.2,38.1,29.98,NE,49,3.0,18.0,96,0.01,,,0.73,292.0,meteohub,2013-05-10 17:23:00,
2013-05-10 13:28:00,38.8,37.6,29.98,ENE,64,11.0,18.0,95,0.01,,,0.73,292.0,meteohub,2013-05-10 17:28:00,
2013-05-10 13:33:00,38.7,37.0,29.98,NE,37,6.0,14.0,94,0.01,,,0.73,295.0,meteohub,2013-05-10 17:33:00,
2013-05-10 13:38:00,38.8,37.6,29.98,ENE,69,7.0,14.0,95,0.01,,,0.73,207.0,meteohub,2013-05-10 17:38:00,
2013-05-10 13:43:00,38.7,37.0,29.98,ENE,74,12.0,14.0,94,0.01,,,0.73,220.0,meteohub,2013-05-10 17:43:00,
2013-05-10 13:48:00,38.5,36.9,29.98,NNE,15,11.0,14.0,94,0.01,,,0.73,218.0,meteohub,2013-05-10 17:48:00,
2013-05-10 13:53:00,38.5,36.9,29.98,North,349,6.0,15.0,94,0.01,,,0.73,214.0,meteohub,2013-05-10 17:53:00,
2013-05-10 13:58:00,38.5,36.7,29.98,East,82,8.0,15.0,93,0.01,,,0.73,223.0,meteohub,2013-05-10 17:58:00,
2013-05-10 14:03:00,38.7,36.9,29.99,NNE,24,2.0,15.0,93,0.01,,,0.73,195.0,meteohub,2013-05-10 18:03:00,
2013-05-10 14:08:00,38.8,37.0,29.99,ENE,64,5.0,14.0,93,0.00,,,0.73,218.0,meteohub,2013-05-10 18:08:00,
2013-05-10 14:13:00,38.8,37.0,29.99,NE,46,5.0,13.0,93,0.00,,,0.73,269.0,meteohub,2013-05-10 18:13:00,
2013-05-10 14:18:00,39.0,37.4,29.99,ENE,71,4.0,13.0,94,0.00,,,0.73,178.0,meteohub,2013-05-10 18:18:00,
2013-05-10 14:23:00,39.2,37.6,29.99,NNW,344,2.0,13.0,94,0.00,,,0.73,174.0,meteohub,2013-05-10 18:23:00,
2013-05-10 14:28:00,38.8,37.0,29.98,NNE,30,6.0,13.0,93,0.00,,,0.73,221.0,meteohub,2013-05-10 18:28:00,
2013-05-10 14:33:00,38.7,36.5,29.98,NE,46,5.0,14.0,92,0.00,,,0.73,218.0,meteohub,2013-05-10 18:33:00,
2013-05-10 14:38:00,38.8,37.0,29.98,NNE,23,2.0,14.0,93,0.00,,,0.73,281.0,meteohub,2013-05-10 18:38:00,
2013-05-10 14:43:00,39.2,37.4,29.98,NE,55,5.0,14.0,93,0.00,,,0.73,322.0,meteohub,2013-05-10 18:43:00,
2013-05-10 14:48:00,39.4,37.0,29.98,NNE,28,5.0,13.0,91,0.00,,,0.73,186.0,meteohub,2013-05-10 18:48:00,
2013-05-10 14:53:00,39.4,37.2,29.97,ENE,67,2.0,12.0,92,0.00,,,0.73,220.0,meteohub,2013-05-10 18:53:00,
2013-05-10 14:58:00,39.2,36.9,29.98,NNW,334,1.0,12.0,91,0.00,,,0.73,227.0,meteohub,2013-05-10 18:58:00,
2013-05-10 15:03:00,39.6,37.2,29.97,North,355,1.0,12.0,91,0.00,,,0.73,232.0,meteohub,2013-05-10 19:03:00,
2013-05-10 15:08:00,39.4,36.7,29.98,NNE,13,2.0,11.0,90,0.00,,,0.73,204.0,meteohub,2013-05-10 19:08:00,
2013-05-10 15:13:00,39.4,37.0,29.98,NNW,328,2.0,11.0,91,0.00,,,0.73,206.0,meteohub,2013-05-10 19:13:00,
2013-05-10 15:18:00,39.4,37.0,29.98,ENE,59,7.0,11.0,91,0.00,,,0.73,148.0,meteohub,2013-05-10 19:18:00,
2013-05-10 15:23:00,39.2,36.9,29.98,East,81,6.0,12.0,91,0.00,,,0.73,185.0,meteohub,2013-05-10 19:23:00,
2013-05-10 15:28:00,39.4,36.7,29.98,ENE,65,7.0,12.0,90,0.00,,,0.73,230.0,meteohub,2013-05-10 19:28:00,
2013-05-10 15:33:00,39.6,37.2,29.98,ENE,78,9.0,15.0,91,0.00,,,0.73,132.0,meteohub,2013-05-10 19:33:00,
2013-05-10 15:38:00,39.7,37.0,29.98,NNE,20,4.0,15.0,90,0.00,,,0.73,141.0,meteohub,2013-05-10 19:38:00,
2013-05-10 15:43:00,39.7,37.4,29.98,NNE,29,9.0,15.0,91,0.00,,,0.73,202.0,meteohub,2013-05-10 19:43:00,
2013-05-10 15:48:00,39.7,37.0,29.98,ENE,78,5.0,10.0,90,0.00,,,0.73,204.0,meteohub,2013-05-10 19:48:00,
2013-05-10 15:53:00,39.9,37.6,29.98,North,0,4.0,13.0,91,0.00,,,0.73,104.0,meteohub,2013-05-10 19:53:00,
2013-05-10 15:58:00,39.7,37.0,29.98,ENE,67,7.0,13.0,90,0.00,,,0.73,132.0,meteohub,2013-05-10 19:58:00,
2013-05-10 16:04:00,39.9,37.2,29.97,NE,40,5.0,12.0,90,0.00,,,0.73,162.0,meteohub,2013-05-10 20:04:00,
2013-05-10 16:09:00,39.9,36.9,29.97,NNE,13,3.0,13.0,89,0.00,,,0.73,121.0,meteohub,2013-05-10 20:09:00,
2013-05-10 16:14:00,39.7,36.7,29.97,North,0,2.0,13.0,89,0.00,,,0.73,134.0,meteohub,2013-05-10 20:14:00,
2013-05-10 16:19:00,39.9,36.9,29.96,NNE,28,2.0,13.0,89,0.00,,,0.73,146.0,meteohub,2013-05-10 20:19:00,
2013-05-10 16:24:00,39.9,37.2,29.96,ENE,57,2.0,9.0,90,0.00,,,0.73,160.0,meteohub,2013-05-10 20:24:00,
2013-05-10 16:29:00,40.3,37.6,29.96,NNE,29,7.0,9.0,90,0.00,,,0.73,206.0,meteohub,2013-05-10 20:29:00,
2013-05-10 16:34:00,40.3,37.6,29.96,NE,49,5.0,9.0,90,0.00,,,0.73,206.0,meteohub,2013-05-10 20:34:00,
2013-05-10 16:39:00,40.3,37.2,29.96,East,87,5.0,9.0,89,0.00,,,0.73,218.0,meteohub,2013-05-10 20:39:00,
2013-05-10 16:44:00,40.6,37.6,29.96,NE,37,3.0,10.0,89,0.00,,,0.73,294.0,meteohub,2013-05-10 20:44:00,
2013-05-10 16:49:00,40.8,37.6,29.96,NNE,26,4.0,10.0,88,0.00,,,0.73,232.0,meteohub,2013-05-10 20:49:00,
2013-05-10 16:54:00,41.0,37.9,29.96,NE,34,2.0,10.0,89,0.00,,,0.73,221.0,meteohub,2013-05-10 20:54:00,
2013-05-10 16:59:00,41.2,37.6,29.96,NE,50,0.0,9.0,87,0.00,,,0.73,120.0,meteohub,2013-05-10 20:59:00,
2013-05-10 17:04:00,41.0,37.4,29.96,NE,46,2.0,9.0,87,0.00,,,0.73,167.0,meteohub,2013-05-10 21:04:00,
2013-05-10 17:09:00,41.2,37.9,29.96,NE,38,5.0,9.0,88,0.00,,,0.73,148.0,meteohub,2013-05-10 21:09:00,
2013-05-10 17:14:00,40.8,37.2,29.96,NE,49,6.0,9.0,87,0.00,,,0.73,172.0,meteohub,2013-05-10 21:14:00,
2013-05-10 17:19:00,40.8,37.2,29.96,NE,37,4.0,9.0,87,0.00,,,0.73,141.0,meteohub,2013-05-10 21:19:00,
2013-05-10 17:24:00,41.0,37.8,29.96,North,0,3.0,9.0,88,0.00,,,0.73,141.0,meteohub,2013-05-10 21:24:00,
2013-05-10 17:29:00,41.0,37.4,29.96,ENE,62,2.0,7.0,87,0.00,,,0.73,109.0,meteohub,2013-05-10 21:29:00,
2013-05-10 17:34:00,41.2,37.9,29.96,ENE,76,5.0,6.0,88,0.00,,,0.73,97.0,meteohub,2013-05-10 21:34:00,
2013-05-10 17:39:00,40.8,37.0,29.96,NE,49,2.0,6.0,86,0.00,,,0.73,109.0,meteohub,2013-05-10 21:39:00,
2013-05-10 17:44:00,40.8,37.2,29.96,North,350,0.0,6.0,87,0.00,,,0.73,91.0,meteohub,2013-05-10 21:44:00,
2013-05-10 17:49:00,40.8,37.2,29.96,North,0,2.0,6.0,87,0.00,,,0.73,102.0,meteohub,2013-05-10 21:49:00,
2013-05-10 17:54:00,40.8,37.2,29.96,NNE,24,1.0,6.0,87,0.00,,,0.73,105.0,meteohub,2013-05-10 21:54:00,
2013-05-10 17:58:00,40.8,37.2,29.96,North,11,0.0,7.0,87,0.00,,,0.73,90.0,meteohub,2013-05-10 21:58:00,
2013-05-10 17:59:00,40.8,37.2,29.96,North,5,2.0,7.0,87,0.00,,,0.73,86.0,meteohub,2013-05-10 21:59:00,
2013-05-10 18:04:00,41.0,37.4,29.96,North,355,2.0,7.0,87,0.00,,,0.73,81.0,meteohub,2013-05-10 22:04:00,
2013-05-10 18:09:00,41.0,37.4,29.96,NE,42,1.0,5.0,87,0.00,,,0.73,77.0,meteohub,2013-05-10 22:09:00,
2013-05-10 18:14:00,41.0,37.4,29.96,North,5,1.0,7.0,87,0.00,,,0.73,84.0,meteohub,2013-05-10 22:14:00,
2013-05-10 18:19:00,41.2,37.4,29.96,NE,49,2.0,7.0,86,0.00,,,0.73,83.0,meteohub,2013-05-10 22:19:00,
2013-05-10 18:24:00,41.2,37.4,29.96,NE,36,1.0,4.0,86,0.00,,,0.73,91.0,meteohub,2013-05-10 22:24:00,
2013-05-10 18:29:00,41.2,37.4,29.95,NE,55,1.0,7.0,86,0.00,,,0.73,91.0,meteohub,2013-05-10 22:29:00,
2013-05-10 18:34:00,41.4,37.2,29.95,NNE,26,2.0,7.0,85,0.00,,,0.73,77.0,meteohub,2013-05-10 22:34:00,
2013-05-10 18:39:00,41.4,37.6,29.95,NNE,27,0.0,7.0,86,0.00,,,0.73,74.0,meteohub,2013-05-10 22:39:00,
2013-05-10 18:44:00,41.5,37.6,29.95,NE,56,2.0,5.0,86,0.00,,,0.73,70.0,meteohub,2013-05-10 22:44:00,
2013-05-10 18:49:00,41.5,37.6,29.95,NNE,25,1.0,5.0,86,0.00,,,0.73,76.0,meteohub,2013-05-10 22:49:00,
2013-05-10 18:54:00,41.5,37.4,29.95,NNE,22,0.0,5.0,85,0.00,,,0.73,54.0,meteohub,2013-05-10 22:54:00,
2013-05-10 18:59:00,41.5,37.4,29.95,NE,36,0.0,5.0,85,0.00,,,0.73,51.0,meteohub,2013-05-10 22:59:00,
2013-05-10 19:04:00,41.7,37.8,29.95,NE,39,1.0,3.0,86,0.00,,,0.73,54.0,meteohub,2013-05-10 23:04:00,
2013-05-10 19:09:00,41.7,38.1,29.94,North,0,2.0,6.0,87,0.00,,,0.73,49.0,meteohub,2013-05-10 23:09:00,
2013-05-10 19:14:00,41.7,37.6,29.94,North,350,1.0,6.0,85,0.00,,,0.73,40.0,meteohub,2013-05-10 23:14:00,
2013-05-10 19:19:00,41.7,37.6,29.94,NNE,24,2.0,4.0,85,0.00,,,0.73,33.0,meteohub,2013-05-10 23:19:00,
2013-05-10 19:24:00,41.7,37.6,29.94,NE,45,1.0,6.0,85,0.00,,,0.73,37.0,meteohub,2013-05-10 23:24:00,
2013-05-10 19:29:00,41.7,37.6,29.94,NE,46,3.0,6.0,85,0.00,,,0.73,30.0,meteohub,2013-05-10 23:29:00,
2013-05-10 19:34:00,41.7,37.6,29.94,NE,47,1.0,6.0,85,0.00,,,0.73,32.0,meteohub,2013-05-10 23:34:00,
2013-05-10 19:39:00,41.7,37.6,29.94,NE,40,3.0,5.0,85,0.00,,,0.73,26.0,meteohub,2013-05-10 23:39:00,
2013-05-10 19:44:00,41.7,37.8,29.94,NE,44,0.0,7.0,86,0.00,,,0.73,23.0,meteohub,2013-05-10 23:44:00,
2013-05-10 19:50:00,41.9,37.9,29.94,NE,36,1.0,7.0,86,0.00,,,0.73,23.0,meteohub,2013-05-10 23:50:00,
2013-05-10 19:55:00,41.9,38.3,29.94,NE,36,1.0,7.0,87,0.00,,,0.73,23.0,meteohub,2013-05-10 23:55:00,
2013-05-10 20:00:00,42.1,38.5,29.94,NE,36,1.0,3.0,87,0.00,,,0.73,26.0,meteohub,2013-05-11 00:00:00,
2013-05-10 20:05:00,42.1,38.8,29.94,NE,46,0.0,3.0,88,0.00,,,0.73,19.0,meteohub,2013-05-11 00:05:00,
2013-05-10 20:10:00,42.1,38.5,29.94,ENE,68,2.0,2.0,87,0.00,,,0.00,18.0,meteohub,2013-05-11 00:10:00,
2013-05-10 20:15:00,42.1,38.5,29.93,NE,55,2.0,3.0,87,0.00,,,0.00,16.0,meteohub,2013-05-11 00:15:00,
2013-05-10 20:20:00,42.1,38.1,29.93,ENE,65,1.0,6.0,86,0.00,,,0.00,14.0,meteohub,2013-05-11 00:20:00,
2013-05-10 20:25:00,42.1,38.5,29.93,NE,44,1.0,6.0,87,0.00,,,0.00,12.0,meteohub,2013-05-11 00:25:00,
2013-05-10 20:30:00,42.1,38.5,29.94,NE,55,2.0,6.0,87,0.00,,,0.00,9.0,meteohub,2013-05-11 00:30:00,
2013-05-10 20:35:00,41.9,38.3,29.94,NE,54,2.0,6.0,87,0.00,,,0.00,7.0,meteohub,2013-05-11 00:35:00,
2013-05-10 20:40:00,41.9,38.3,29.93,ENE,65,2.0,7.0,87,0.00,,,0.00,5.0,meteohub,2013-05-11 00:40:00,
2013-05-10 20:45:00,41.9,38.3,29.94,East,81,2.0,3.0,87,0.00,,,0.00,0.0,meteohub,2013-05-11 00:45:00,
2013-05-10 20:50:00,41.7,38.1,29.93,ENE,62,2.0,3.0,87,0.00,,,0.00,0.0,meteohub,2013-05-11 00:50:00,
2013-05-10 20:55:00,41.7,38.1,29.93,ENE,63,1.0,3.0,87,0.00,,,0.00,0.0,meteohub,2013-05-11 00:55:00,
2013-05-10 21:00:00,41.7,38.1,29.94,ENE,76,2.0,4.0,87,0.00,,,0.00,0.0,meteohub,2013-05-11 01:00:00,
2013-05-10 21:05:00,41.7,38.5,29.94,ENE,61,1.0,4.0,88,0.00,,,0.00,0.0,meteohub,2013-05-11 01:05:00,
2013-05-10 21:10:00,41.7,38.1,29.94,East,85,1.0,4.0,87,0.00,,,0.00,0.0,meteohub,2013-05-11 01:10:00,
2013-05-10 21:15:00,41.7,38.1,29.94,ENE,63,1.0,5.0,87,0.00,,,0.00,0.0,meteohub,2013-05-11 01:15:00,
2013-05-10 21:20:00,41.7,38.5,29.94,ENE,61,0.0,5.0,88,0.00,,,0.00,0.0,meteohub,2013-05-11 01:20:00,
2013-05-10 21:25:00,41.7,38.5,29.93,ENE,62,0.0,3.0,88,0.00,,,0.00,0.0,meteohub,2013-05-11 01:25:00,
2013-05-10 21:30:00,41.7,38.5,29.93,ENE,62,0.0,3.0,88,0.00,,,0.00,0.0,meteohub,2013-05-11 01:30:00,
2013-05-10 21:35:00,41.7,38.5,29.93,ENE,57,1.0,2.0,88,0.00,,,0.00,0.0,meteohub,2013-05-11 01:35:00,
2013-05-10 21:41:00,41.7,38.7,29.93,ENE,57,0.0,2.0,89,0.00,,,0.00,0.0,meteohub,2013-05-11 01:41:00,
2013-05-10 21:46:00,41.7,38.5,29.93,ENE,57,0.0,2.0,88,0.00,,,0.00,0.0,meteohub,2013-05-11 01:46:00,
2013-05-10 21:51:00,41.7,39.0,29.93,ENE,57,0.0,1.0,90,0.00,,,0.00,0.0,meteohub,2013-05-11 01:51:00,
2013-05-10 21:56:00,41.5,38.8,29.93,ENE,57,0.0,1.0,90,0.00,,,0.00,0.0,meteohub,2013-05-11 01:56:00,
2013-05-10 22:01:00,41.5,38.5,29.94,ENE,57,0.0,1.0,89,0.00,,,0.00,0.0,meteohub,2013-05-11 02:01:00,
2013-05-10 22:06:00,41.5,38.8,29.93,ENE,57,0.0,1.0,90,0.00,,,0.00,0.0,meteohub,2013-05-11 02:06:00,
2013-05-10 22:11:00,41.5,39.2,29.93,ENE,57,0.0,1.0,91,0.00,,,0.00,0.0,meteohub,2013-05-11 02:11:00,
2013-05-10 22:16:00,41.5,39.4,29.94,ENE,57,0.0,1.0,92,0.00,,,0.00,0.0,meteohub,2013-05-11 02:16:00,
2013-05-10 22:21:00,41.5,39.4,29.94,ENE,57,0.0,1.0,92,0.00,,,0.00,0.0,meteohub,2013-05-11 02:21:00,
2013-05-10 22:26:00,41.4,39.2,29.94,ENE,57,0.0,1.0,92,0.00,,,0.00,0.0,meteohub,2013-05-11 02:26:00,
2013-05-10 22:31:00,41.4,39.6,29.94,ENE,57,1.0,1.0,93,0.00,,,0.00,0.0,meteohub,2013-05-11 02:31:00,
2013-05-10 22:36:00,41.4,39.2,29.94,ENE,57,0.0,1.0,92,0.00,,,0.00,0.0,meteohub,2013-05-11 02:36:00,
2013-05-10 22:41:00,41.4,39.2,29.94,ENE,57,0.0,1.0,92,0.00,,,0.00,0.0,meteohub,2013-05-11 02:41:00,
2013-05-10 22:46:00,41.4,39.6,29.94,ENE,57,1.0,1.0,93,0.00,,,0.00,0.0,meteohub,2013-05-11 02:46:00,
2013-05-10 22:51:00,41.4,39.6,29.94,ENE,57,0.0,1.0,93,0.00,,,0.00,0.0,meteohub,2013-05-11 02:51:00,
2013-05-10 22:56:00,41.4,39.6,29.93,ENE,57,0.0,1.0,93,0.00,,,0.00,0.0,meteohub,2013-05-11 02:56:00,
2013-05-10 23:02:00,41.4,39.6,29.93,ENE,57,0.0,1.0,93,0.00,,,0.00,0.0,meteohub,2013-05-11 03:02:00,
2013-05-10 23:07:00,41.4,39.6,29.93,ENE,57,0.0,1.0,93,0.00,,,0.00,0.0,meteohub,2013-05-11 03:07:00,
2013-05-10 23:12:00,41.2,39.4,29.93,ENE,57,0.0,1.0,93,0.00,,,0.00,0.0,meteohub,2013-05-11 03:12:00,
2013-05-10 23:17:00,41.2,39.4,29.93,ENE,57,0.0,1.0,93,0.00,,,0.00,0.0,meteohub,2013-05-11 03:17:00,
2013-05-10 23:22:00,41.4,39.7,29.92,ENE,57,0.0,1.0,94,0.00,,,0.00,0.0,meteohub,2013-05-11 03:22:00,
2013-05-10 23:27:00,41.4,39.7,29.92,ENE,57,0.0,1.0,94,0.00,,,0.00,0.0,meteohub,2013-05-11 03:27:00,
2013-05-10 23:32:00,41.2,39.4,29.92,ENE,57,1.0,1.0,93,0.00,,,0.00,0.0,meteohub,2013-05-11 03:32:00,
2013-05-10 23:37:00,41.2,39.0,29.92,ENE,57,1.0,2.0,92,0.00,,,0.00,0.0,meteohub,2013-05-11 03:37:00,
2013-05-10 23:42:00,41.4,39.2,29.92,ENE,57,0.0,2.0,92,0.00,,,0.00,0.0,meteohub,2013-05-11 03:42:00,
2013-05-10 23:47:00,41.4,39.2,29.92,ENE,57,0.0,2.0,92,0.00,,,0.00,0.0,meteohub,2013-05-11 03:47:00,
2013-05-10 23:52:00,41.4,39.2,29.91,ENE,57,0.0,2.0,92,0.00,,,0.00,0.0,meteohub,2013-05-11 03:52:00,
2013-05-10 23:57:00,41.4,39.2,29.91,ENE,57,0.0,1.0,92,0.00,,,0.00,0.0,meteohub,2013-05-11 03:57:00,